Location: Glencliff
(36.1226°N, 86.7183°W)
Time: 00:30:46
(UTC+00:00)

H-2A R/B - Pass Details

Date: 25 August 2019
Orbit: 733 x 837 km, 98.3° (Epoch: 18 September)

Event Time Altitude Azimuth Distance (km) Brightness Sun altitude
Exits shadow 01:20:37 12° 137° (SE) 2,122 3.7 -11.3°
Maximum altitude 01:24:48 39° 72° (ENE) 1,119 2.5 -12.1°
Drops below altitude 10° 01:29:22 10° 4° (N) 2,255 4.7 -13.0°
Sets 01:31:45 0° 357° (N) 3,174 5.6 -13.4°
